TimeMST,TemperatureF,Dew PointF,Humidity,Sea Level PressureIn,VisibilityMPH,Wind Direction,Wind SpeedMPH,Gust SpeedMPH,PrecipitationIn,Events,Conditions,WindDirDegrees,DateUTC
12:19 AM,28.4,26.6,93,29.83,8.0,NNE,8.1,-,N/A,,Overcast,30,2013-12-19 07:19:00
12:52 AM,28.0,26.1,92,29.87,7.0,NE,10.4,-,N/A,,Overcast,40,2013-12-19 07:52:00
1:52 AM,27.0,26.1,96,29.89,2.5,East,8.1,-,N/A,,Overcast,90,2013-12-19 08:52:00
2:16 AM,26.6,26.6,100,29.83,1.8,East,6.9,-,N/A,,Overcast,90,2013-12-19 09:16:00
2:37 AM,26.6,26.6,100,29.84,0.8,ESE,8.1,-,N/A,,Unknown,110,2013-12-19 09:37:00
2:52 AM,27.0,26.1,96,29.89,0.8,ESE,8.1,-,N/A,,Unknown,120,2013-12-19 09:52:00
3:31 AM,26.6,24.8,93,29.83,2.0,East,9.2,-,N/A,,Overcast,100,2013-12-19 10:31:00
3:45 AM,26.6,24.8,93,29.82,1.0,ESE,10.4,-,N/A,,Overcast,110,2013-12-19 10:45:00
3:52 AM,26.1,25.0,96,29.91,1.2,ESE,6.9,-,N/A,,Overcast,110,2013-12-19 10:52:00
4:04 AM,26.6,24.8,93,29.83,0.8,ESE,9.2,-,N/A,,Unknown,120,2013-12-19 11:04:00
4:18 AM,26.6,24.8,93,29.83,1.0,SE,11.5,-,N/A,,Unknown,130,2013-12-19 11:18:00
4:28 AM,26.6,24.8,93,29.83,0.8,ESE,8.1,-,N/A,,Unknown,120,2013-12-19 11:28:00
4:52 AM,26.1,25.0,96,29.92,1.2,SE,9.2,-,N/A,,Overcast,130,2013-12-19 11:52:00
5:04 AM,26.6,24.8,93,29.83,2.5,ESE,6.9,-,N/A,,Overcast,110,2013-12-19 12:04:00
5:35 AM,24.8,24.8,100,29.83,0.8,ESE,13.8,-,N/A,,Overcast,120,2013-12-19 12:35:00
5:48 AM,24.8,24.8,100,29.83,1.0,SE,13.8,-,0.00,,Light Freezing Drizzle,130,2013-12-19 12:48:00
5:52 AM,25.0,23.0,92,29.93,1.0,ESE,12.7,-,0.00,,Light Freezing Drizzle,120,2013-12-19 12:52:00
6:52 AM,21.9,21.0,96,29.95,1.0,East,13.8,-,0.00,,Light Freezing Drizzle,90,2013-12-19 13:52:00
7:41 AM,19.4,17.6,93,29.85,0.8,ENE,15.0,-,0.00,,Light Freezing Drizzle,70,2013-12-19 14:41:00
7:52 AM,19.0,18.0,96,29.97,0.5,East,16.1,-,0.00,Fog,Light Freezing Drizzle,80,2013-12-19 14:52:00
8:13 AM,19.4,17.6,93,29.88,0.5,ENE,15.0,-,0.00,Fog,Light Freezing Fog,70,2013-12-19 15:13:00
8:52 AM,17.1,14.0,88,30.02,0.5,ENE,16.1,-,0.02,Fog-Snow,Light Snow,70,2013-12-19 15:52:00
9:03 AM,17.6,14.0,86,29.89,0.5,ENE,13.8,-,0.01,Fog-Snow,Light Snow,70,2013-12-19 16:03:00
9:40 AM,15.8,12.2,86,29.89,0.8,NE,10.4,-,0.03,Snow,Light Snow,50,2013-12-19 16:40:00
9:49 AM,15.8,12.2,86,29.89,0.8,ENE,13.8,-,0.04,Snow,Light Snow,60,2013-12-19 16:49:00
9:52 AM,15.1,12.0,88,30.02,0.5,NE,11.5,-,0.04,Fog-Snow,Light Snow,50,2013-12-19 16:52:00
10:37 AM,12.2,10.4,92,29.92,0.5,NE,10.4,-,0.03,Fog-Snow,Light Snow,40,2013-12-19 17:37:00
10:52 AM,12.9,9.0,84,30.08,0.5,NNE,12.7,-,0.04,Fog-Snow,Snow,30,2013-12-19 17:52:00
11:00 AM,12.2,8.6,85,29.94,0.2,NNE,10.4,-,0.01,Fog-Snow,Snow,30,2013-12-19 18:00:00
11:10 AM,12.2,8.6,85,29.94,0.2,NE,9.2,-,0.03,Fog-Snow,Snow,40,2013-12-19 18:10:00
11:38 AM,10.4,8.6,92,29.94,0.2,NNE,15.0,-,0.10,Fog-Snow,Heavy Snow,30,2013-12-19 18:38:00
11:52 AM,10.9,7.0,84,30.07,0.2,NNE,13.8,-,0.13,Fog-Snow,Heavy Snow,30,2013-12-19 18:52:00
12:00 PM,10.4,6.8,85,29.92,0.2,NNE,16.1,-,0.01,Fog-Snow,Heavy Snow,30,2013-12-19 19:00:00
12:20 PM,10.4,6.8,85,29.92,0.5,NNE,18.4,-,0.02,Fog-Snow,Snow,30,2013-12-19 19:20:00
12:28 PM,8.6,5.0,85,29.91,0.5,NNE,18.4,-,0.03,Fog-Snow,Snow,30,2013-12-19 19:28:00
12:39 PM,8.6,5.0,85,29.92,0.5,NNE,18.4,-,0.03,Fog-Snow,Snow,20,2013-12-19 19:39:00
12:52 PM,8.1,3.9,83,30.08,0.5,North,17.3,-,0.05,Fog-Snow,Snow,10,2013-12-19 19:52:00
1:40 PM,8.6,3.2,79,29.95,0.5,North,20.7,-,0.01,Fog-Snow,Snow,360,2013-12-19 20:40:00
1:52 PM,7.0,3.0,84,30.12,0.5,North,20.7,-,0.01,Fog-Snow,Snow,360,2013-12-19 20:52:00
2:15 PM,6.8,1.4,79,29.97,1.0,North,19.6,25.3,0.01,Snow,Light Snow,360,2013-12-19 21:15:00
2:26 PM,6.8,1.4,79,29.97,0.8,North,20.7,-,0.01,Snow,Light Snow,360,2013-12-19 21:26:00
2:41 PM,6.8,1.4,79,29.97,1.0,North,20.7,-,0.01,Snow,Light Snow,360,2013-12-19 21:41:00
2:52 PM,6.1,1.9,83,30.13,1.0,North,19.6,-,0.01,Snow,Light Snow,360,2013-12-19 21:52:00
3:52 PM,5.0,1.0,84,30.16,2.0,North,16.1,-,0.00,Snow,Light Snow,360,2013-12-19 22:52:00
4:08 PM,5.0,1.4,85,29.99,1.5,North,17.3,-,0.00,Snow,Light Snow,360,2013-12-19 23:08:00
4:15 PM,5.0,-0.4,78,30.00,2.0,North,19.6,-,0.00,Snow,Light Snow,360,2013-12-19 23:15:00
4:38 PM,3.2,-0.4,85,30.01,4.0,North,16.1,-,0.00,Snow,Light Snow,360,2013-12-19 23:38:00
4:52 PM,3.9,-0.0,84,30.18,3.0,North,15.0,-,0.00,Snow,Light Snow,10,2013-12-19 23:52:00
5:00 PM,3.2,-0.4,85,30.01,2.5,North,16.1,-,0.00,Snow,Light Snow,10,2013-12-20 00:00:00
5:10 PM,3.2,-0.4,85,30.00,3.0,North,16.1,-,0.00,Snow,Light Snow,10,2013-12-20 00:10:00
5:52 PM,3.0,-0.9,84,30.18,7.0,North,12.7,-,0.00,,Overcast,350,2013-12-20 00:52:00
6:35 PM,1.4,-0.4,92,30.02,5.0,North,10.4,-,N/A,Snow,Blowing Snow,360,2013-12-20 01:35:00
6:52 PM,1.9,-2.0,83,30.21,7.0,North,9.2,-,N/A,,Mostly Cloudy,360,2013-12-20 01:52:00
7:06 PM,1.4,-2.2,85,30.03,9.0,North,12.7,-,N/A,,Mostly Cloudy,360,2013-12-20 02:06:00
7:17 PM,1.4,-2.2,85,30.04,9.0,North,15.0,-,N/A,,Overcast,360,2013-12-20 02:17:00
7:52 PM,1.9,-2.0,83,30.23,4.0,North,19.6,-,0.00,Snow,Light Snow,360,2013-12-20 02:52:00
8:12 PM,1.4,-2.2,85,30.04,4.0,North,19.6,24.2,0.00,Snow,Light Snow,360,2013-12-20 03:12:00
8:34 PM,1.4,-2.2,85,30.04,10.0,North,18.4,-,0.00,,Scattered Clouds,360,2013-12-20 03:34:00
8:52 PM,1.0,-2.9,83,30.24,10.0,North,17.3,-,0.00,,Clear,360,2013-12-20 03:52:00
9:52 PM,-0.9,-5.1,83,30.24,10.0,NNW,9.2,-,N/A,,Clear,340,2013-12-20 04:52:00
10:52 PM,-2.9,-8.0,79,30.22,10.0,NNW,8.1,-,N/A,,Clear,330,2013-12-20 05:52:00
11:52 PM,-4.0,-9.0,79,30.21,10.0,NNW,10.4,-,N/A,,Clear,340,2013-12-20 06:52:00